When you browse on this site, cookies collect data to enhance your experience and personalize the content and advertising you see.
Visit our Privacy Policy to learn more. By continuing to use the site, you agree to this use of cookies and data.
  • In Deutschland
  • Länderverzeichnis
  • Für 7 Tage
  • Wassertemperatur
  • Wetterkarte
  • Widgets
  • user-avatar
    Anmelden

    Stündliche Wetter Vostochnyy

    Heute, 20 Oktober, Sonntag

    Zeit Temperatur Niederschläge Wind Luftdruck Luftfeuchtigkeit
    00:00 -4°C° 0 mm 1 m/S 764 mmHg 63%
    01:00 -6°C° 0 mm 1 m/S 764 mmHg 65%
    02:00 -7°C° 0 mm 2 m/S 764 mmHg 67%
    03:00 -7°C° 0 mm 2 m/S 764 mmHg 68%
    04:00 -7°C° 0 mm 2 m/S 764 mmHg 70%
    05:00 -7°C° 0 mm 2 m/S 764 mmHg 71%
    06:00 -8°C° 0 mm 3 m/S 764 mmHg 72%
    07:00 -8°C° 0 mm 3 m/S 764 mmHg 74%
    08:00 -7°C° 0 mm 3 m/S 764 mmHg 68%
    09:00 -6°C° 0 mm 3 m/S 763 mmHg 62%
    10:00 -5°C° 0 mm 4 m/S 763 mmHg 56%
    11:00 -4°C° 0 mm 4 m/S 763 mmHg 53%
    12:00 -3°C° 0 mm 4 m/S 762 mmHg 49%
    13:00 -2°C° 0 mm 4 m/S 761 mmHg 46%
    14:00 -2°C° 0 mm 4 m/S 761 mmHg 50%
    15:00 -3°C° 0 mm 4 m/S 761 mmHg 54%
    16:00 -3°C° 0 mm 4 m/S 761 mmHg 58%
    17:00 -3°C° 0 mm 4 m/S 760 mmHg 62%
    18:00 -3°C° 0 mm 4 m/S 760 mmHg 65%
    19:00 -3°C° 0 mm 4 m/S 759 mmHg 69%
    20:00 -3°C° 0 mm 4 m/S 759 mmHg 71%
    21:00 -3°C° 0 mm 4 m/S 758 mmHg 73%
    22:00 -2°C° 0 mm 4 m/S 758 mmHg 75%
    23:00 -2°C° 0.1 mm 4 m/S 757 mmHg 77%

    Morgen, 21 Oktober, Montag

    Zeit Temperatur Niederschläge Wind Luftdruck Luftfeuchtigkeit
    00:00 -2°C° 0.1 mm 4 m/S 757 mmHg 79%
    01:00 -2°C° 0.1 mm 5 m/S 757 mmHg 81%
    02:00 -2°C° 0.8 mm 4 m/S 756 mmHg 87%
    03:00 -2°C° 0.8 mm 4 m/S 756 mmHg 92%
    04:00 -2°C° 0.8 mm 4 m/S 756 mmHg 97%
    05:00 -1°C° 1 mm 4 m/S 755 mmHg 95%
    06:00 -1°C° 1 mm 4 m/S 755 mmHg 94%
    07:00 -1°C° 1 mm 4 m/S 755 mmHg 92%
    08:00 0°C° 0 mm 4 m/S 754 mmHg 90%
    09:00 +1°C° 0 mm 4 m/S 754 mmHg 87%
    10:00 +3°C° 0 mm 4 m/S 754 mmHg 85%
    11:00 +3°C° 0 mm 4 m/S 754 mmHg 86%
    12:00 +3°C° 0 mm 4 m/S 754 mmHg 88%
    13:00 +3°C° 0 mm 3 m/S 753 mmHg 89%
    14:00 +2°C° 0 mm 3 m/S 753 mmHg 90%
    15:00 +2°C° 0 mm 3 m/S 753 mmHg 90%
    16:00 +2°C° 0 mm 3 m/S 753 mmHg 91%
    17:00 +2°C° 0 mm 3 m/S 752 mmHg 92%
    18:00 +1°C° 0 mm 3 m/S 752 mmHg 93%
    19:00 +1°C° 0 mm 3 m/S 752 mmHg 94%
    20:00 0°C° 0 mm 3 m/S 751 mmHg 95%
    21:00 0°C° 0 mm 3 m/S 751 mmHg 95%
    22:00 0°C° 0 mm 3 m/S 750 mmHg 95%
    23:00 0°C° 0.1 mm 4 m/S 749 mmHg 95%

    übermorgen, 22 Oktober, Dienstag

    Zeit Temperatur Niederschläge Wind Luftdruck Luftfeuchtigkeit
    00:00 +1°C° 0.1 mm 4 m/S 748 mmHg 94%
    01:00 +1°C° 0.1 mm 4 m/S 747 mmHg 94%
    02:00 +2°C° 0.9 mm 5 m/S 746 mmHg 93%
    03:00 +2°C° 0.9 mm 5 m/S 745 mmHg 93%
    04:00 +3°C° 0.9 mm 5 m/S 744 mmHg 92%
    05:00 +3°C° 0.5 mm 5 m/S 743 mmHg 91%
    06:00 +3°C° 0.5 mm 5 m/S 742 mmHg 90%
    07:00 +5°C° 0.5 mm 5 m/S 741 mmHg 89%
    08:00 +5°C° 0.1 mm 5 m/S 740 mmHg 87%
    09:00 +5°C° 0.1 mm 5 m/S 740 mmHg 85%
    10:00 +6°C° 0.1 mm 5 m/S 740 mmHg 84%
    11:00 +6°C° 0 mm 5 m/S 740 mmHg 82%
    12:00 +5°C° 0 mm 6 m/S 740 mmHg 80%
    13:00 +4°C° 0 mm 6 m/S 740 mmHg 79%
    14:00 +4°C° 0 mm 6 m/S 741 mmHg 79%
    15:00 +4°C° 0 mm 6 m/S 741 mmHg 79%
    16:00 +3°C° 0 mm 5 m/S 742 mmHg 79%
    17:00 +3°C° 0 mm 5 m/S 743 mmHg 79%
    18:00 +2°C° 0 mm 5 m/S 744 mmHg 79%
    19:00 +2°C° 0 mm 5 m/S 744 mmHg 80%
    20:00 +1°C° 0 mm 4 m/S 745 mmHg 81%
    21:00 0°C° 0 mm 4 m/S 746 mmHg 82%
    22:00 -1°C° 0 mm 4 m/S 746 mmHg 83%
    23:00 -1°C° 0 mm 3 m/S 747 mmHg 83%

    23 Oktober, Mittwoch

    Zeit Temperatur Niederschläge Wind Luftdruck Luftfeuchtigkeit
    00:00 -1°C° 0 mm 3 m/S 747 mmHg 83%
    01:00 -2°C° 0 mm 3 m/S 748 mmHg 84%
    02:00 -2°C° 0 mm 3 m/S 748 mmHg 83%
    03:00 -3°C° 0 mm 2 m/S 749 mmHg 82%
    04:00 -4°C° 0 mm 2 m/S 750 mmHg 81%
    05:00 -4°C° 0 mm 2 m/S 750 mmHg 81%
    06:00 -4°C° 0 mm 2 m/S 751 mmHg 82%
    07:00 -2°C° 0 mm 1 m/S 751 mmHg 83%
    08:00 -1°C° 0 mm 1 m/S 751 mmHg 76%
    09:00 0°C° 0 mm 1 m/S 751 mmHg 69%
    10:00 +1°C° 0 mm 1 m/S 751 mmHg 62%
    11:00 +2°C° 0 mm 1 m/S 751 mmHg 61%
    12:00 +2°C° 0 mm 1 m/S 751 mmHg 60%
    13:00 +2°C° 0 mm 2 m/S 751 mmHg 59%
    14:00 +1°C° 0 mm 2 m/S 751 mmHg 63%
    15:00 +1°C° 0 mm 2 m/S 750 mmHg 67%
    16:00 -1°C° 0 mm 2 m/S 750 mmHg 71%
    17:00 -1°C° 0 mm 3 m/S 750 mmHg 73%
    18:00 -1°C° 0 mm 3 m/S 750 mmHg 75%
    19:00 -2°C° 0 mm 3 m/S 749 mmHg 76%
    20:00 -3°C° 0 mm 4 m/S 749 mmHg 76%
    21:00 -3°C° 0 mm 4 m/S 748 mmHg 75%
    22:00 -3°C° 0 mm 4 m/S 747 mmHg 75%
    23:00 -2°C° 0 mm 4 m/S 747 mmHg 76%

    24 Oktober, Donnerstag

    Zeit Temperatur Niederschläge Wind Luftdruck Luftfeuchtigkeit
    00:00 -2°C° 0 mm 4 m/S 746 mmHg 77%
    01:00 -1°C° 0 mm 5 m/S 746 mmHg 78%
    02:00 0°C° 0 mm 5 m/S 745 mmHg 81%
    03:00 0°C° 0 mm 5 m/S 745 mmHg 83%
    04:00 +1°C° 0 mm 5 m/S 744 mmHg 86%
    05:00 +1°C° 0 mm 5 m/S 744 mmHg 87%
    06:00 +3°C° 0 mm 4 m/S 743 mmHg 88%
    07:00 +3°C° 0 mm 4 m/S 743 mmHg 89%
    08:00 +4°C° 0 mm 4 m/S 743 mmHg 86%
    09:00 +5°C° 0 mm 4 m/S 743 mmHg 84%
    10:00 +6°C° 0 mm 4 m/S 743 mmHg 82%
    11:00 +6°C° 0 mm 5 m/S 743 mmHg 82%
    12:00 +6°C° 0 mm 5 m/S 743 mmHg 82%
    13:00 +6°C° 0 mm 5 m/S 743 mmHg 82%
    14:00 +6°C° 0 mm 5 m/S 743 mmHg 83%
    15:00 +5°C° 0 mm 4 m/S 743 mmHg 84%
    16:00 +5°C° 0 mm 4 m/S 743 mmHg 84%
    17:00 +4°C° 0 mm 4 m/S 744 mmHg 85%
    18:00 +4°C° 0 mm 4 m/S 744 mmHg 86%
    19:00 +3°C° 0 mm 4 m/S 745 mmHg 87%
    20:00 +3°C° 0 mm 3 m/S 745 mmHg 87%
    21:00 +3°C° 0 mm 3 m/S 745 mmHg 88%
    22:00 +3°C° 0 mm 3 m/S 746 mmHg 88%
    23:00 +2°C° 0 mm 3 m/S 746 mmHg 89%

    25 Oktober, Freitag

    Zeit Temperatur Niederschläge Wind Luftdruck Luftfeuchtigkeit
    00:00 +3°C° 0 mm 2 m/S 746 mmHg 90%
    01:00 +2°C° 0 mm 2 m/S 746 mmHg 91%
    02:00 +2°C° 0 mm 2 m/S 747 mmHg 91%
    03:00 +2°C° 0 mm 2 m/S 747 mmHg 91%
    04:00 +2°C° 0 mm 2 m/S 747 mmHg 92%
    05:00 +1°C° 0 mm 2 m/S 747 mmHg 92%
    06:00 +1°C° 0 mm 2 m/S 748 mmHg 92%
    07:00 -1°C° 0 mm 2 m/S 748 mmHg 92%
    08:00 +2°C° 0 mm 2 m/S 748 mmHg 87%
    09:00 +2°C° 0 mm 3 m/S 748 mmHg 83%
    10:00 +3°C° 0 mm 3 m/S 748 mmHg 79%
    11:00 +4°C° 0 mm 3 m/S 747 mmHg 77%
    12:00 +4°C° 0 mm 3 m/S 747 mmHg 75%
    13:00 +5°C° 0 mm 4 m/S 747 mmHg 73%
    14:00 +5°C° 0 mm 3 m/S 746 mmHg 76%
    15:00 +5°C° 0 mm 3 m/S 746 mmHg 80%
    16:00 +4°C° 0 mm 3 m/S 746 mmHg 83%
    17:00 +4°C° 0 mm 3 m/S 746 mmHg 84%
    18:00 +4°C° 0 mm 4 m/S 746 mmHg 85%
    19:00 +4°C° 0 mm 4 m/S 746 mmHg 86%
    20:00 +5°C° 0 mm 4 m/S 746 mmHg 85%
    21:00 +5°C° 0 mm 4 m/S 746 mmHg 84%
    22:00 +5°C° 0 mm 4 m/S 746 mmHg 82%
    23:00 +4°C° 0 mm 4 m/S 747 mmHg 84%
    Mehr zeigen